Find Starlink 36607

NORAD ID: 67620 Int'l Des: 2026-020 Owner: SPXS Country: US Constellation: starlink operational
LEOCIRCULAR

当前视图

正在加载3D地球...

关于 Starlink 36607

正在加载描述...

即将过境

Passes for default location (London). Set your location on the main map for personalized predictions.

高度历史

Loading altitude history...

两行轨道根数

1 67620U 26020D 26146.14683156 .00030227 00000-0 11027-2 0 9991
2 67620 43.0015 61.9879 0000176 253.2887 106.7945 15.27600864 17969
Epoch: May 26, 2026 • Age: 19 hours

当前状态

高度 482.1 km
速度 7.63 km/s
星下点 17.96°N, 12.68°W
发射日期 Jan 30, 2026
运行时间 0.3 years
类型 internet

技术详情

分类 Payload
质量 575.00 kg
干质量 530.00 kg
总质量 575.00 kg
长度 0.30 m
直径 4.10 m
跨度 29.00 m
形状 Box + pan
制造商 SPXS
平台类型 Starlink V2MO
阶段状态 In Orbit
所有者/国家 SPXS/US

Most Searched